Preview of NWS' New Version of Forecast
This preview is not operational and should not be used for support decisions.

Regional Weather Roundup (RWR)

Issued by National Weather Service (NWS)

                            
000
ASCA42 TJSJ 240110
RWRPR 
PUERTO RICO/U.S. VIRGIN ISLANDS HOURLY WEATHER ROUNDUP
NATIONAL WEATHER SERVICE SAN JUAN PR
900 PM AST THU MAY 23 2019

PRZ001>002-007>008-010-240200-
PUERTO RICO
  
CITY           SKY/WX    TMP DP  RH WIND       PRES   REMARKS
SAN JUAN LMM   PTCLDY    81  73  78 E8        29.96S                  
AGUADILLA      PTCLDY    73  73 100 CALM      29.97R                  
CEIBA          MOCLDY    81  73  78 SE7       29.98R                  
$$

VIZ001>002-240200-
U.S. VIRGIN ISLANDS
  
CITY           SKY/WX    TMP DP  RH WIND       PRES   REMARKS
CHARLOTTE AMA  PTCLDY    79  75  89 E3        29.96R                  
CHRISTIANSTED  CLOUDY    77  73  88 E6        29.98R                  
$$

HOURLY WEATHER ROUNDUP FOR THE NEWS MEDIA
  
CITY           SKY/WX    TMP DP  RH WIND       PRES   REMARKS
ORLANDO        FAIR      78  64  61 NE15      30.16S                  
NEW YORK       MOCLDY    60  60 100 S10       29.89F                  
NEWARK         MOCLDY    67  64  90 S7        29.87F                  
CHICAGO        FAIR      71  50  47 W7        30.05R                  
HARTFORD       CLOUDY    59  55  87 SW15G30   29.88F                  
BOSTON         CLOUDY    61  55  81 SW14      29.84F                  
DALLAS         PTCLDY    87  70  56 SE13G22   29.90F HX  92           
PHILADELPHIA   FAIR      73  64  73 SW13      29.92R                  
LOS ANGELES    CLOUDY    61  49  64 W7        30.00S                  
WASHINGTON DC  FAIR      72  67  84 S8        29.97S